Regional Weather Roundup
Issued by NWS

Home | Current Version | Previous Version | Graphics & Text | Print | Product List | Glossary On
Versions: 1 2 3 4 5 6 7 8 9 10 11 12 13 14 15 16 17 18 19 20 21 22 23 24 25 26 27 28 29 30 31 32 33 34 35 36 37 38 39 40 41 42 43 44 45 46 47 48 49 50
000
ASUS43 KLOT 191003
RWRIL

ILLINOIS REGIONAL WEATHER ROUNDUP
NATIONAL WEATHER SERVICE CHICAGO/ROMEOVILLE IL
400 AM CST FRI JAN 19 2018

NOTE: "FAIR" INDICATES FEW OR NO CLOUDS BELOW 12,000 FEET WITH NO
SIGNIFICANT WEATHER AND/OR OBSTRUCTIONS TO VISIBILITY.

* THESE STATIONS ARE NOT UNDER NWS QUALITY CONTROL. THEY ALSO MAY NOT
  REPORT WEATHER SUCH AS PRECIPITATION OR FOG.

ILZ001-002-007-009-015-016-024-191100-
NORTHWEST ILLINOIS

CITY           SKY/WX    TMP DP  RH WIND       PRES   REMARKS
MOLINE         FAIR      30  20  66 SW7       29.91F WCI  23
STERLING*      FAIR      26  20  77 VRB3      29.93F
SAVANNA*       FAIR      23  18  78 S7        29.89F WCI  15
$$

ILZ003-004-008-010-011-017-018-191100-
NORTH CENTRAL ILLINOIS

CITY           SKY/WX    TMP DP  RH WIND       PRES   REMARKS
ROCKFORD       FAIR      26  18  71 SW9       29.91F WCI  17
FREEPORT*      FAIR      26  19  75 S13       29.89F WCI  15
ROCHELLE*      FAIR      22  19  85 S10       29.92F WCI  12
DE KALB*       FAIR      21  17  83 S12       29.92F WCI   9
PERU*          FAIR      29  19  67 SW12      29.96F WCI  19
$$

ILZ005-006-012>014-019>023-191100-
NORTHEAST ILLINOIS

CITY           SKY/WX    TMP DP  RH WIND       PRES   REMARKS
CHICAGO-OHARE  FAIR      28  18  66 SW12      29.92F WCI  18
CHICAGO-MIDWAY FAIR      29  20  69 SW13      29.94F WCI  19
AURORA         FAIR      25  18  74 S13       29.94F WCI  14
LANSING*       FAIR      23  19  85 SW9       29.97F WCI  13
JOLIET*        FAIR      29  21  71 SW7       29.97S WCI  22
WAUKEGAN       FAIR      29  19  66 SW12G22   29.88S WCI  19
DUPAGE AIRPORT FAIR      24  18  77 S12       29.92F WCI  13
KANKAKEE*      FAIR     N/A N/A N/A SW14      30.01F
WHEELING       FAIR      29  19  66 SW8       29.93F WCI  21
MORRIS*        FAIR      26  19  74 SW12      29.96F WCI  16
ROMEOVILLE*    FAIR      26  20  77 SW12      29.96S WCI  16
NORTHERLY ISL    N/A     28  19  69 SW7         N/A  WCI  21
$$

LMZ740>746-191100-
SOUTHERN LAKE MICHIGAN

STATION/POSITION SKY/WX   TEMP    WIND        PRES    VSBY  WAVE
                          AIR SEA DIR/SP/G                  HT/PER
                          (F)     (DEG/KT/KT) (MB)    (MI)  (FT/S)
HARRISON CRIB              31     200/ 19/ 23   N/A
BURNHAM HARBOR             28     210/  7/ 10   N/A
CALUMET HARBOR             28     210/ 12/ 17 1013.4F
BURNS HARBOR               29     210/ 14/ 23 1015.2F
MICHIGAN CITY              29     180/ 17/ 20   N/A
$$

ILZ025>027-034>036-040-047-049-050-058-095>099-191100-
WEST-CENTRAL ILLINOIS

CITY           SKY/WX    TMP DP  RH WIND       PRES   REMARKS
QUINCY         CLOUDY    30  18  60 S14       29.99F WCI  19
JACKSONVILLE*  CLOUDY    31  15  51 S14       30.03F WCI  20
PITTSFIELD*    CLOUDY    34  17  50 SW14      30.03F WCI  24
$$

ILZ028>032-037-038-041>044-048-051>054-059>061-191100-
CENTRAL ILLINOIS

CITY           SKY/WX    TMP DP  RH WIND       PRES   REMARKS
PONTIAC        FAIR      28  21  75 SW10      30.00S WCI  18
BLOOMINGTON    FAIR      26  18  71 SW18      30.01F WCI  13
DECATUR        FAIR      25  19  78 SW16      30.05F WCI  12
PEORIA         FAIR      27  19  72 S10       30.00S WCI  17
LACON*         FAIR      30  20  66 SW10      29.96F WCI  21
LINCOLN*       FAIR      26  19  75 S5        30.03S WCI  21
SPRINGFIELD    FAIR      29  17  61 S15       30.04F WCI  18
TAYLORVILLE    FAIR      24  17  77 S9        30.07F WCI  14
$$

ILZ033-039-045-046-055>057-062-063-191100-
EAST-CENTRAL ILLINOIS

CITY           SKY/WX    TMP DP  RH WIND       PRES   REMARKS
CHAMPAIGN      FAIR      21  16  81 SW14      30.05F WCI   8
DANVILLE*      FAIR      22  15  75 SW13      30.04S WCI  10
RANTOUL*       FAIR      26  19  77 SW12      30.04F WCI  15
MATTOON        FAIR      22  16  78 S13       30.08F WCI  10
PARIS*         FAIR      22  17  79 S16       30.10F WCI   8
$$

ILZ079-100>102-191100-
SOUTHWEST ILLINOIS

CITY           SKY/WX    TMP DP  RH WIND       PRES   REMARKS
ALTON          CLOUDY    27  18  69 S12       30.10F WCI  16
BELLEVILLE     FAIR      25  16  67 SW9       30.12F WCI  16
CAHOKIA*       FAIR      25  14  63 S8        30.12F WCI  16
SPARTA*        FAIR      25  19  76 S10       30.16F WCI  15
$$

ILZ064>066-069>071-074>076-080>082-084>086-088>090-092>094-191100-
SOUTH-CENTRAL ILLINOIS

CITY           SKY/WX    TMP DP  RH WIND       PRES   REMARKS
CARBONDALE     FAIR      23  17  78 S12       30.20S WCI  12
CAIRO*         FAIR      10   8  91 CALM      30.25S
EFFINGHAM*     FAIR      25  17  72 S6        30.14F WCI  18
MARION         FAIR      21  15  79 S8        30.21S WCI  11
MT. VERNON     FAIR      22  17  81 S7        30.17F WCI  13
CENTRALIA*     FAIR      25  19  75 S9        30.14F WCI  16
SALEM*         FAIR      27  17  67 S9        30.14F WCI  17
METROPOLIS*    FAIR      20  12  73 S5        30.26S WCI  13
$$

ILZ067-068-072-073-078-083-087-091-191100-
SOUTHEAST ILLINOIS

CITY           SKY/WX    TMP DP  RH WIND       PRES   REMARKS
LAWRENCEVILLE  FAIR      15  10  80 S7        30.18F WCI   5
FLORA*         FAIR      23  16  74 S10       30.16F WCI  13
FAIRFIELD*     FAIR      21  15  75 S6        30.17F WCI  14
HARRISBURG*    FAIR      22  16  75 SW6       30.22S WCI  15
ROBINSON*      FAIR      22  14  69 SW6       30.17S WCI  15
CARMI*         FAIR      23  15  72 S9        30.20S WCI  13
$$

ABBREVIATIONS USED IN REMARKS
   TC - TEMPERATURE IN CELSIUS
  WCI - WIND CHILL INDEX
   HX - HEAT INDEX
  VSB - VISIBILITY
$$




USA.gov is the U.S. government's official web portal to all federal, state and local government web resources and services.